Simultaneous Nadir Overpasses (SNOs) Predictions

Prediction of SNOs between GOES-14 and NPP Satellite Orbit:

Table of predicted SNOs for the next 14.0 days since TLE Epoch: 8/28/2020
Index Date Time (GOES-14) GOES-14 Lat,Lon NPP Lat,Lon Distance(km) Time Diff (sec)
1 08/31/2020 08:26:35 0.40,-104.44 0.48,-104.94 56.33 80
2 09/01/2020 08:05:10 0.40,-104.43 -0.52,-100.41 458.69 80
3 09/02/2020 20:27:08 -0.39,-104.56 -0.65,-105.72 131.65 80
4 09/03/2020 20:11:03 -0.39,-104.57 0.35,-101.18 385.35 80
5 09/05/2020 08:32:52 0.39,-104.45 0.82,-106.45 228.34 80
6 09/06/2020 08:11:27 0.39,-104.44 -0.18,-101.92 286.89 80
7 09/07/2020 20:33:24 -0.38,-104.54 -0.98,-107.23 306.48 80
8 09/08/2020 20:17:20 -0.38,-104.55 0.02,-102.70 210.50 80
9 09/10/2020 08:39:08 0.37,-104.45 1.16,-107.97 400.51 80
10 09/11/2020 08:17:44 0.37,-104.44 0.15,-103.44 114.36 80
